Regional Weather Roundup
Issued by NWS Sioux Falls, SD

Home | Current Version | Previous Version | Text Only | Print | Product List | Glossary On
Versions: 1 2 3 4 5 6 7 8 9 10 11 12 13 14 15 16 17 18 19 20 21 22 23 24 25 26 27 28 29 30 31 32 33 34 35 36 37 38 39 40 41 42 43 44 45 46 47 48 49 50
000
ASUS43 KFSD 282110
RWRFSD

WEATHER ROUNDUP FOR SE SOUTH DAKOTA/SW MINNESOTA/NW IOWA
NATIONAL WEATHER SERVICE SIOUX FALLS SD
300 PM CST SAT FEB 28 2015

NOTE: "FAIR" INDICATES FEW OR NO CLOUDS BELOW 12,000 FEET WITH NO
SIGNIFICANT WEATHER AND OR OBSTRUCTIONS TO VISIBILITY.


SDZ038>040-050-052>070-282200-
SOUTHEAST SOUTH DAKOTA

CITY           SKY/WX    TMP DP  RH WIND       PRES   REMARKS
CHAMBERLAIN    MOSUNNY   34  10  36 W13G18    30.11F WCI  25
HURON          SUNNY     30  14  51 S13G22    30.15F WCI  20
MADISON        CLOUDY    23  16  74 S15G23    30.19S WCI  10
MITCHELL       CLOUDY    32  10  40 S18G25    30.19F WCI  20
SIOUX FALLS    PTSUNNY   25  13  60 S20G28    30.23F WCI  11
WINNER         FAIR      36   9  32 NW14      30.11F
YANKTON        SUNNY     30  10  43 S17G24    30.25F WCI  18
$$

MNZ071-072-080-081-089-090-097-098-282200-
SOUTHWEST MINNESOTA

CITY           SKY/WX    TMP DP  RH WIND       PRES   REMARKS
FAIRMONT       MOSUNNY   19   9  63 S20G25    30.33F WCI   4
JACKSON        PTSUNNY   21   9  58 S17       30.32S WCI   7
LUVERNE        CLOUDY    25  14  63 S21G26    30.26F WCI  10
MARSHALL       PTSUNNY   21  10  63 SW20G29   30.29S WCI   6
MONTEVIDEO     CLOUDY    25  12  58 SW16G24   30.28F WCI  12
PIPESTONE      FLURRIES  21  14  73 SW20      30.22F WCI   6
REDWOOD FALLS  SUNNY     22  10  60 S20       30.31F WCI   7
TRACY          MOSUNNY   23  12  64 S15G22    30.27F WCI  10
WINDOM         SUNNY     21  10  63 S15G21    30.29F WCI   8
WORTHINGTON    PTSUNNY   28   9  43 S20G25    30.28F WCI  15
$$

IAZ001>003-012>014-020>022-031-032-NEZ013-014-SDZ071-282200-
NORTHWEST IOWA

CITY           SKY/WX    TMP DP  RH WIND       PRES   REMARKS
CHEROKEE       PTSUNNY   22  13  68 S14       30.33F WCI   9
DENISON        MOSUNNY   23  12  63 S15G22    30.34S WCI  10
ESTHERVILLE    SUNNY     18   9  68 S20       30.33F WCI   2
LE MARS        CLOUDY    25  16  68 S17G24    30.31F WCI  11
ORANGE CITY    CLOUDY    25  14  63 S20       30.29F WCI  11
SHELDON        CLOUDY    21  12  68 S17G25    30.28F WCI   7
SIOUX CITY     CLOUDY    27  14  58 S15       30.32F WCI  15
SPENCER        PTSUNNY   21  10  62 S18       30.32F WCI   6
STORM LAKE     CLOUDY    19  12  73 S16       30.33F WCI   5
$$

ABBREVIATIONS USED IN REMARKS
   TC - TEMPERATURE IN CELSIUS
  WCI - WIND CHILL INDEX
   HX - HEAT INDEX
  VSB - VISIBILITY



USA.gov is the U.S. government's official web portal to all federal, state and local government web resources and services.